STARLINK BA

Last updated on Jan. 16, 2020, 12:02 a.m. UTC

1 44962U 20001BA  20015.58334491 -.00045945  00000-0 -20916-3 0  9993
2 44962  52.9999 354.7395 0000989 248.5713 185.5915 15.82938416  1352

Satellite is not in orbit.